Time,TemperatureF,DewpointF,PressureIn,WindDirection,WindDirectionDegrees,WindSpeedMPH,WindSpeedGustMPH,Humidity,HourlyPrecipIn,Conditions,Clouds,dailyrainin,SoftwareType,DateUTC
2014-11-24 00:13:00,48.7,43.0,30.20,SW,229,2.0,13.0,80,0.00,,,0.00,weatherlink.com 1.10,2014-11-24 05:13:00,
2014-11-24 00:28:00,48.2,43.0,30.19,SSE,167,7.0,11.0,81,0.00,,,0.00,weatherlink.com 1.10,2014-11-24 05:28:00,
2014-11-24 00:43:00,48.5,43.0,30.17,SSE,148,5.0,15.0,82,0.00,,,0.00,weatherlink.com 1.10,2014-11-24 05:43:00,
2014-11-24 00:58:00,48.9,44.0,30.16,SE,139,5.0,15.0,82,0.00,,,0.00,weatherlink.com 1.10,2014-11-24 05:58:00,
2014-11-24 01:13:00,49.2,44.0,30.14,South,177,6.0,15.0,82,0.00,,,0.00,weatherlink.com 1.10,2014-11-24 06:13:00,
2014-11-24 01:28:00,48.9,44.0,30.13,SW,225,7.0,14.0,82,0.00,,,0.00,weatherlink.com 1.10,2014-11-24 06:28:00,
2014-11-24 01:43:00,47.7,44.0,30.13,East,89,2.0,14.0,87,0.00,,,0.00,weatherlink.com 1.10,2014-11-24 06:43:00,
2014-11-24 01:58:00,45.8,43.0,30.12,SE,132,4.0,11.0,91,0.01,,,0.01,weatherlink.com 1.10,2014-11-24 06:58:00,
2014-11-24 02:13:00,45.0,43.0,30.10,SW,221,1.0,10.0,93,0.03,,,0.03,weatherlink.com 1.10,2014-11-24 07:13:00,
2014-11-24 02:28:00,44.4,43.0,30.09,SSE,149,3.0,10.0,94,0.06,,,0.06,weatherlink.com 1.10,2014-11-24 07:28:00,
2014-11-24 02:43:00,44.3,43.0,30.07,SW,219,8.0,11.0,95,0.09,,,0.09,weatherlink.com 1.10,2014-11-24 07:43:00,
2014-11-24 02:58:00,44.6,43.0,30.05,South,186,2.0,6.0,95,0.13,,,0.14,weatherlink.com 1.10,2014-11-24 07:58:00,
2014-11-24 03:13:00,44.9,44.0,30.02,ESE,118,6.0,10.0,95,0.15,,,0.18,weatherlink.com 1.10,2014-11-24 08:13:00,
2014-11-24 03:28:00,45.1,44.0,30.00,SSE,160,4.0,12.0,96,0.15,,,0.21,weatherlink.com 1.10,2014-11-24 08:28:00,
2014-11-24 03:43:00,45.3,44.0,29.98,WSW,246,1.0,11.0,96,0.17,,,0.26,weatherlink.com 1.10,2014-11-24 08:43:00,
2014-11-24 03:59:00,45.6,45.0,29.96,ESE,121,2.0,9.0,96,0.17,,,0.31,weatherlink.com 1.10,2014-11-24 08:59:00,
2014-11-24 04:14:00,45.9,45.0,29.96,South,190,4.0,16.0,96,0.18,,,0.36,weatherlink.com 1.10,2014-11-24 09:14:00,
2014-11-24 04:29:00,46.3,45.0,29.94,SW,221,2.0,9.0,96,0.21,,,0.42,weatherlink.com 1.10,2014-11-24 09:29:00,
2014-11-24 04:44:00,46.9,46.0,29.92,ENE,64,3.0,11.0,96,0.22,,,0.49,weatherlink.com 1.10,2014-11-24 09:44:00,
2014-11-24 04:59:00,47.5,47.0,29.91,SSW,193,3.0,12.0,96,0.25,,,0.56,weatherlink.com 1.10,2014-11-24 09:59:00,
2014-11-24 05:14:00,48.5,48.0,29.90,SE,139,7.0,15.0,97,0.25,,,0.03,weatherlink.com 1.10,2014-11-24 10:14:00,
2014-11-24 05:29:00,48.9,48.0,29.89,SW,229,5.0,19.0,96,0.19,,,0.04,weatherlink.com 1.10,2014-11-24 10:29:00,
2014-11-24 05:44:00,50.4,50.0,29.87,West,264,4.0,17.0,97,0.14,,,0.05,weatherlink.com 1.10,2014-11-24 10:44:00,
2014-11-24 05:59:00,51.3,51.0,29.85,SW,222,4.0,16.0,97,0.08,,,0.07,weatherlink.com 1.10,2014-11-24 10:59:00,
2014-11-24 06:14:00,52.0,51.0,29.85,South,174,31.0,31.0,97,0.06,,,0.09,weatherlink.com 1.10,2014-11-24 11:14:00,
2014-11-24 06:29:00,53.4,53.0,29.85,SW,235,11.0,19.0,97,0.07,,,0.11,weatherlink.com 1.10,2014-11-24 11:29:00,
2014-11-24 06:44:00,54.2,53.0,29.85,ENE,59,7.0,27.0,96,0.07,,,0.12,weatherlink.com 1.10,2014-11-24 11:44:00,
2014-11-24 06:59:00,54.9,54.0,29.85,SSE,158,5.0,19.0,96,0.05,,,0.12,weatherlink.com 1.10,2014-11-24 11:59:00,
2014-11-24 07:14:00,55.7,55.0,29.84,SW,222,7.0,15.0,96,0.04,,,0.13,weatherlink.com 1.10,2014-11-24 12:14:00,
2014-11-24 07:29:00,55.9,55.0,29.85,SW,224,10.0,16.0,96,0.02,,,0.13,weatherlink.com 1.10,2014-11-24 12:29:00,
2014-11-24 07:44:00,56.5,55.0,29.83,SW,235,5.0,18.0,96,0.01,,,0.13,weatherlink.com 1.10,2014-11-24 12:44:00,
2014-11-24 07:59:00,56.5,55.0,29.84,SW,224,8.0,17.0,96,0.02,,,0.14,weatherlink.com 1.10,2014-11-24 12:59:00,
2014-11-24 08:14:00,56.8,55.0,29.85,SW,222,8.0,11.0,95,0.01,,,0.14,weatherlink.com 1.10,2014-11-24 13:14:00,
2014-11-24 08:29:00,56.7,55.0,29.84,SW,218,2.0,13.0,95,0.02,,,0.15,weatherlink.com 1.10,2014-11-24 13:29:00,
2014-11-24 08:44:00,56.8,55.0,29.84,SW,236,9.0,20.0,95,0.03,,,0.16,weatherlink.com 1.10,2014-11-24 13:44:00,
2014-11-24 08:59:00,57.6,55.0,29.84,NNW,346,4.0,26.0,92,0.02,,,0.16,weatherlink.com 1.10,2014-11-24 13:59:00,
2014-11-24 09:14:00,57.4,55.0,29.84,NW,307,2.0,17.0,92,0.02,,,0.16,weatherlink.com 1.10,2014-11-24 14:14:00,
2014-11-24 09:29:00,57.5,55.0,29.84,South,169,4.0,16.0,92,0.02,,,0.17,weatherlink.com 1.10,2014-11-24 14:29:00,
2014-11-24 09:44:00,57.7,55.0,29.84,SW,232,7.0,14.0,92,0.01,,,0.17,weatherlink.com 1.10,2014-11-24 14:44:00,
2014-11-24 09:59:00,57.7,55.0,29.84,South,191,2.0,22.0,92,0.02,,,0.18,weatherlink.com 1.10,2014-11-24 14:59:00,
2014-11-24 10:14:00,58.3,56.0,29.84,NNE,24,2.0,10.0,90,0.02,,,0.18,weatherlink.com 1.10,2014-11-24 15:14:00,
2014-11-24 10:30:00,58.5,55.0,29.84,ENE,76,5.0,12.0,89,0.01,,,0.18,weatherlink.com 1.10,2014-11-24 15:30:00,
2014-11-24 10:45:00,58.7,56.0,29.83,SW,231,3.0,6.0,90,0.01,,,0.18,weatherlink.com 1.10,2014-11-24 15:45:00,
2014-11-24 11:00:00,59.1,55.0,29.82,WNW,298,7.0,18.0,86,0.01,,,0.19,weatherlink.com 1.10,2014-11-24 16:00:00,
2014-11-24 11:15:00,59.3,55.0,29.81,SW,228,2.0,19.0,86,0.01,,,0.19,weatherlink.com 1.10,2014-11-24 16:15:00,